Erie, CO

1:09 AM MDT on April 23, 2018 (GMT -0600)
Erie Municipal Airport

Weather History for KEIK - November, 2013

Change the Weather History Date:

Saturday, November 23, 2013

  Actual Average (KBJC) Record (KBJC)
Temperature  
Mean Temperature 28 °F -  
Max Temperature 34 °F 47 °F 69 °F (2017)
Min Temperature 23 °F 28 °F 5 °F (1985)
Degree Days  
Heating Degree Days 36    
Moisture  
Dew Point 22 °F    
Average Humidity 78    
Maximum Humidity 95    
Minimum Humidity 46    
Precipitation  
Precipitation 0.00 in - - ()
Sea Level Pressure  
Sea Level Pressure 30.48 in    
Wind  
Wind Speed 1 mph (WSW)    
Max Wind Speed 8 mph    
Max Gust Speed 16 mph    
Visibility 10 miles    
Events Snow    
Averages and records for this station are not official NWS values.
T = Trace of Precipitation, MM = Missing Value Source: NWS Daily Summary

Daily Weather History Graph

Daily Weather History Graph

Search for Another Location

Airport or City:

Astronomy

Nov. 23, 2013 Rise Set
Actual Time 6:54 AM MST 4:38 PM MST
Civil Twilight 6:25 AM MST 5:07 PM MST
Nautical Twilight 5:51 AM MST 5:41 PM MST
Astronomical Twilight 5:19 AM MST 6:13 PM MST
Moon 10:09 PM MST 11:12 AM MST
Length of Visible Light 10h 42m
Length of Day
9h 43m
Waning Gibbous, 69% of the Moon is Illuminated
Nov 23
Waning Gibbous
Nov 25
Last Quarter
Dec 2
New
Dec 9
First Quarter
Dec 17
Full

Hourly Weather History & Observations

Time (MST) Temp. Windchill Dew Point Humidity Pressure Visibility Wind Dir Wind Speed Gust Speed Precip Events Conditions
12:14 AM 29.1 °F - 12.0 °F 49% 30.56 in 10.0 mi Calm Calm - N/A   Overcast
12:34 AM 29.3 °F - 10.9 °F 46% 30.56 in 10.0 mi Calm Calm - N/A   Overcast
12:54 AM 29.3 °F 25.6 °F 14.4 °F 54% 30.56 in 10.0 mi SSW 3.5 mph - N/A   Overcast
1:14 AM 29.1 °F 24.1 °F 12.4 °F 50% 30.56 in 10.0 mi South 4.6 mph - N/A   Overcast
1:34 AM 29.3 °F 21.5 °F 13.6 °F 52% 30.56 in 10.0 mi SSE 8.1 mph - N/A   Overcast
1:54 AM 28.0 °F 20.8 °F 19.4 °F 70% 30.57 in 4.0 mi SSW 6.9 mph 16.1 mph N/A Snow Light Snow
2:14 AM 25.7 °F 19.0 °F 23.0 °F 89% 30.58 in 2.0 mi SSW 5.8 mph - N/A Snow Light Snow
2:34 AM 25.3 °F 19.7 °F 23.7 °F 94% 30.58 in 1.5 mi SSW 4.6 mph - N/A Snow Light Snow
2:54 AM 25.5 °F 18.7 °F 23.9 °F 94% 30.58 in 1.8 mi SSW 5.8 mph - N/A Snow Light Snow
3:14 AM 25.2 °F 20.9 °F 23.4 °F 93% 30.58 in 7.0 mi South 3.5 mph - N/A Snow Light Snow
3:34 AM 25.2 °F - 22.5 °F 89% 30.58 in 7.0 mi Calm Calm - N/A Snow Light Snow
3:54 AM 25.3 °F - 22.1 °F 87% 30.58 in 10.0 mi Calm Calm - N/A   Scattered Clouds
4:14 AM 25.2 °F - 22.1 °F 88% 30.58 in 10.0 mi Calm Calm - N/A   Scattered Clouds
4:34 AM 25.2 °F - 21.9 °F 87% 30.58 in 10.0 mi Calm Calm - N/A   Clear
4:54 AM 25.2 °F - 22.1 °F 88% 30.58 in 10.0 mi Calm Calm - N/A   Scattered Clouds
5:14 AM 25.2 °F - 21.9 °F 87% 30.57 in 10.0 mi Calm Calm - N/A   Scattered Clouds
5:34 AM 25.0 °F - 21.9 °F 88% 30.56 in 10.0 mi Calm Calm - N/A   Clear
5:54 AM 24.8 °F - 22.5 °F 91% 30.56 in 10.0 mi Calm Calm - N/A   Clear
6:14 AM 25.2 °F - 22.1 °F 88% 30.58 in 10.0 mi Calm Calm - N/A   Scattered Clouds
6:34 AM 24.8 °F - 22.1 °F 89% 30.57 in 10.0 mi Calm Calm - N/A   Clear
6:54 AM 24.4 °F - 21.9 °F 90% 30.58 in 10.0 mi Calm Calm - N/A   Clear
7:14 AM 24.3 °F - 21.7 °F 90% 30.58 in 10.0 mi Calm Calm - N/A   Clear
7:34 AM 23.7 °F - 21.6 °F 91% 30.58 in 10.0 mi Calm Calm - N/A   Clear
7:54 AM 25.0 °F - 22.8 °F 91% 30.58 in 10.0 mi Calm Calm - N/A   Clear
8:14 AM 27.0 °F - 22.5 °F 83% 30.58 in 10.0 mi Calm Calm - N/A   Clear
8:34 AM 27.5 °F - 22.3 °F 81% 30.59 in 10.0 mi Calm Calm - N/A   Clear
8:54 AM 27.3 °F - 22.3 °F 81% 30.59 in 10.0 mi Calm Calm - N/A   Clear
9:14 AM 27.7 °F - 22.5 °F 81% 30.59 in 10.0 mi Calm Calm - N/A   Clear
9:34 AM 28.2 °F - 22.6 °F 80% 30.58 in 10.0 mi Calm Calm - N/A   Clear
9:54 AM 29.3 °F - 21.0 °F 71% 30.58 in 10.0 mi Calm Calm - N/A   Clear
10:14 AM 30.0 °F - 21.6 °F 71% 30.58 in 10.0 mi Calm Calm - N/A   Clear
10:34 AM 30.7 °F - 21.6 °F 69% 30.56 in 10.0 mi Calm Calm - N/A   Clear
10:54 AM 31.3 °F - 21.7 °F 68% 30.56 in 10.0 mi Calm Calm - N/A   Scattered Clouds
11:14 AM 32.0 °F - 22.1 °F 67% 30.55 in 10.0 mi Calm Calm - N/A   Mostly Cloudy
11:34 AM 32.0 °F - 21.9 °F 66% 30.54 in 10.0 mi Calm Calm - N/A   Overcast
11:54 AM 33.1 °F - 22.1 °F 64% 30.52 in 10.0 mi Calm Calm - N/A   Mostly Cloudy
12:14 PM 32.4 °F 27.9 °F 22.1 °F 66% 30.51 in 10.0 mi WNW 4.6 mph - N/A   Mostly Cloudy
12:34 PM 32.5 °F - 22.1 °F 65% 30.50 in 10.0 mi Calm Calm - N/A   Overcast
12:54 PM 33.3 °F - 21.7 °F 63% 30.49 in 10.0 mi Calm Calm - N/A   Overcast
1:14 PM 34.3 °F - 22.3 °F 61% 30.48 in 10.0 mi Calm Calm - N/A   Scattered Clouds
1:34 PM 34.0 °F - 21.6 °F 60% 30.47 in 10.0 mi Calm Calm - N/A   Clear
1:54 PM 34.3 °F - 21.4 °F 59% 30.45 in 10.0 mi Calm Calm - N/A   Clear
2:14 PM 33.8 °F - 21.6 °F 61% 30.44 in 10.0 mi Calm Calm - N/A   Clear
2:34 PM 34.0 °F 31.0 °F 21.7 °F 61% 30.44 in 10.0 mi West 3.5 mph - N/A   Clear
2:54 PM 34.2 °F - 21.2 °F 59% 30.44 in 10.0 mi Calm Calm - N/A   Clear
3:14 PM 34.2 °F - 21.0 °F 59% 30.43 in 10.0 mi Calm Calm - N/A   Clear
3:34 PM 34.3 °F - 21.4 °F 59% 30.43 in 10.0 mi Calm Calm - N/A   Clear
3:54 PM 34.3 °F - 21.0 °F 58% 30.42 in 10.0 mi Calm Calm - N/A   Clear
4:14 PM 34.3 °F 31.4 °F 22.6 °F 62% 30.41 in 10.0 mi NNW 3.5 mph - N/A   Clear
4:34 PM 32.9 °F - 23.2 °F 67% 30.41 in 10.0 mi Calm Calm - N/A   Clear
4:54 PM 32.0 °F - 24.8 °F 75% 30.41 in 10.0 mi Calm Calm - N/A   Mostly Cloudy
5:14 PM 31.8 °F 28.5 °F 25.3 °F 77% 30.41 in 10.0 mi NNW 3.5 mph - N/A   Mostly Cloudy
5:34 PM 29.5 °F 24.5 °F 23.7 °F 79% 30.40 in 10.0 mi North 4.6 mph - N/A   Scattered Clouds
5:54 PM 29.1 °F 25.4 °F 24.6 °F 83% 30.40 in 10.0 mi NNW 3.5 mph - N/A   Clear
6:14 PM 28.4 °F 23.3 °F 23.2 °F 81% 30.39 in 10.0 mi NNE 4.6 mph - N/A   Clear
6:34 PM 28.4 °F - 24.8 °F 86% 30.38 in 10.0 mi Calm Calm - N/A   Clear
6:54 PM 28.2 °F - 25.0 °F 88% 30.38 in 10.0 mi Calm Calm - N/A   Clear
7:14 PM 28.4 °F - 25.5 °F 89% 30.37 in 10.0 mi Calm Calm - N/A   Clear
7:34 PM 27.7 °F 23.8 °F 25.9 °F 93% 30.37 in 10.0 mi SW 3.5 mph - N/A   Clear
7:54 PM 26.4 °F - 24.6 °F 93% 30.37 in 10.0 mi Calm Calm - N/A   Clear
8:14 PM 26.6 °F - 24.6 °F 92% 30.36 in 10.0 mi Calm Calm - N/A   Clear
8:34 PM 26.4 °F - 23.5 °F 89% 30.35 in 10.0 mi Calm Calm - N/A   Clear
8:54 PM 25.0 °F 20.7 °F 22.8 °F 91% 30.35 in 10.0 mi NNW 3.5 mph - N/A   Clear
9:14 PM 25.3 °F - 23.0 °F 91% 30.34 in 10.0 mi Calm Calm - N/A   Clear
9:34 PM 25.2 °F - 22.6 °F 90% 30.34 in 10.0 mi Calm Calm - N/A   Clear
9:54 PM 25.0 °F - 22.6 °F 91% 30.33 in 10.0 mi Calm Calm - N/A   Clear
10:14 PM 23.7 °F - 21.9 °F 93% 30.33 in 10.0 mi Calm Calm - N/A   Clear
10:34 PM 24.4 °F - 22.6 °F 93% 30.31 in 10.0 mi Calm Calm - N/A   Clear
10:54 PM 23.9 °F 19.5 °F 22.6 °F 95% 30.31 in 10.0 mi West 3.5 mph - N/A   Clear
11:14 PM 24.8 °F - 23.0 °F 93% 30.32 in 10.0 mi Calm Calm - N/A   Clear
11:34 PM 25.7 °F - 23.5 °F 92% 30.30 in 10.0 mi Calm Calm - N/A   Clear
11:54 PM 26.1 °F - 23.5 °F 90% 30.29 in 10.0 mi Calm Calm - N/A   Clear